Hourly Data Report for October 01, 2014

All times are specified in Local Standard Time (LST). Add 1 hour to adjust for Daylight Saving Time where and when it is observed.

KUGAARUK CLIMATE
NUNAVUT

68°32'15.060" N
89°47'47.020" W
15.80 m
2303094
71407
NBB

Download Data

Hourly Data (October 2014)
Hourly Data Report for October 1, 2014
Temp Definition
°C
Dew Point Temp Definition
°C
Rel Hum Definition
%
Wind Dir Definition
10's deg

Wind Spd Definition
km/h
Visibility Definition
km
Stn Press Definition
kPa
Hmdx Definition


Wind Chill Definition


Weather Definition


TIME
00:00 -6.7 -9.6 80 29 26   101.55   -15 LegendNANA
01:00 -6.8 -9.8 79 29 14   101.56   -13 LegendNANA
02:00 -6.7 -9.7 79 29 20   101.53   -14 LegendNANA
03:00 -7.4 -9.4 85 27 23   101.54   -15 LegendNANA
04:00 -7.2 -9.6 82 27 29   101.56   -16 LegendNANA
05:00 -7.6 -9.9 84 26 20   101.57   -15 LegendNANA
06:00 -7.1 -9.9 81 28 22   101.57   -15 LegendNANA
07:00 -6.5 -9.9 77 28 26   101.54   -14 LegendNANA
08:00 -5.9 -9.9 73 29 20   101.52   -13 LegendNANA
09:00 -5.4 -9.7 71 32 13   101.51   -11 LegendNANA
10:00 -4.6 -9.7 67 29 13   101.48   -10 LegendNANA
11:00 -4.1 -10.1 63 29 9   101.48   -8 LegendNANA
12:00 -3.7 -9.4 65 33 18   101.48   -10 LegendNANA
13:00 -3.7 -9.6 64 33 15   101.51   -9 LegendNANA
14:00 -3.8 -8.8 68 33 15   101.52   -9 LegendNANA
15:00 -3.9 -8.0 73 34 18   101.52   -10 LegendNANA
16:00 -3.9 -7.5 76 33 17   101.53   -10 LegendNANA
17:00 -3.9 -7.1 78 35 14   101.54   -9 LegendNANA
18:00 -4.0 -7.0 80 35 11   101.55   -8 LegendNANA
19:00 -3.9 -6.9 80 36 8   101.57   -7 LegendNANA
20:00 -4.0 -7.2 78 36 13   101.54   -9 LegendNANA
21:00 -4.1 -7.4 78 35 13   101.53   -9 LegendNANA
22:00 -4.5 -8.0 77 36 10   101.53   -9 LegendNANA
23:00 -4.9 -7.7 80 32 7   101.54   -8 LegendNANA

Notes on Data Quality.

Legend

  • E = Estimated
  • M = Missing
  • NA = Not Available
  • ‡ = Partner data that is not subject to review by the National Climate Archives
Date modified: